Simultaneous Nadir Overpasses (SNOs) Predictions

Prediction of SNOs between METOP-C and LANDSAT-8 Satellite Orbit:

Table of predicted SNOs for the next 14.0 days since TLE Epoch: 10/7/2023
Index Date (METOP-C) Time (METOP-C) Lat,Lon (METOP-C) SZA (METOP-C ) Date (LANDSAT-8) Time (LANDSAT-8) Lat,Lon (LANDSAT-8) SZA (LANDSAT-8 ) Distance(km) Time Diff (sec)
1 10/07/2023 21:37:52 81.13,-104.48 89.12 10/07/2023 21:38:14 81.13,-104.54 89.13 1.09 22
2 10/07/2023 22:28:32 -81.14, 63.22 90.82 10/07/2023 22:27:40 -81.15, 63.40 90.82 3.23 52
3 10/10/2023 17:12:17 81.12, -38.31 90.18 10/10/2023 17:12:31 81.12, -38.24 90.19 1.13 14
4 10/10/2023 18:02:56 -81.14, 129.84 89.71 10/10/2023 18:01:57 -81.14, 129.72 89.75 2.18 59
5 10/13/2023 12:46:40 81.13, 28.50 91.30 10/13/2023 12:46:46 81.13, 28.42 91.30 1.27 6
6 10/13/2023 13:37:20 -81.15,-163.65 88.62 10/13/2023 13:36:12 -81.15,-163.59 88.64 1.31 68
7 10/16/2023 07:30:25 -81.10, -73.30 87.77 10/16/2023 07:31:35 -81.10, -73.30 87.75 0.41 70
8 10/16/2023 08:21:03 81.13, 94.80 92.34 10/16/2023 08:21:00 81.12, 94.72 92.33 1.50 3
9 10/19/2023 03:04:48 -81.11, -6.67 86.71 10/19/2023 03:05:48 -81.11, -6.61 86.67 1.14 60



Historial Predications of SNOs between METOP-C and LANDSAT-8
